TimeEST,TemperatureF,Dew PointF,Humidity,Sea Level PressureIn,VisibilityMPH,Wind Direction,Wind SpeedMPH,Gust SpeedMPH,PrecipitationIn,Events,Conditions,WindDirDegrees,DateUTC
12:15 AM,53.6,53.6,100,29.55,3.0,SSW,4.6,-,N/A,,Overcast,210,2012-12-18 05:15:00
12:35 AM,51.8,51.8,100,29.55,6.0,SSW,4.6,-,N/A,,Overcast,210,2012-12-18 05:35:00
12:55 AM,51.8,51.8,100,29.56,4.0,WSW,6.9,-,N/A,,Overcast,250,2012-12-18 05:55:00
1:15 AM,51.8,50.0,94,29.55,5.0,SW,9.2,-,N/A,,Overcast,220,2012-12-18 06:15:00
1:35 AM,51.8,51.8,100,29.56,1.8,SW,6.9,-,N/A,,Overcast,230,2012-12-18 06:35:00
1:55 AM,50.0,48.2,94,29.57,1.5,SW,9.2,-,N/A,,Overcast,230,2012-12-18 06:55:00
2:15 AM,50.0,48.2,94,29.57,1.5,SW,9.2,-,N/A,,Overcast,220,2012-12-18 07:15:00
2:35 AM,50.0,48.2,94,29.56,1.5,SW,5.8,-,N/A,,Overcast,220,2012-12-18 07:35:00
2:55 AM,50.0,48.2,94,29.58,1.8,WSW,6.9,-,N/A,,Overcast,240,2012-12-18 07:55:00
3:15 AM,50.0,50.0,100,29.57,2.5,WSW,6.9,-,N/A,,Overcast,250,2012-12-18 08:15:00
3:35 AM,50.0,50.0,100,29.56,3.0,West,6.9,-,N/A,,Overcast,260,2012-12-18 08:35:00
3:55 AM,50.0,50.0,100,29.56,6.0,SSW,8.1,-,N/A,,Overcast,210,2012-12-18 08:55:00
4:15 AM,50.0,50.0,100,29.57,6.0,SSW,4.6,-,N/A,,Overcast,210,2012-12-18 09:15:00
4:35 AM,50.0,50.0,100,29.56,7.0,SW,6.9,-,N/A,,Overcast,220,2012-12-18 09:35:00
4:55 AM,48.2,48.2,100,29.57,6.0,SW,6.9,-,N/A,,Overcast,220,2012-12-18 09:55:00
5:15 AM,48.2,48.2,100,29.56,6.0,SW,4.6,-,N/A,,Overcast,220,2012-12-18 10:15:00
5:35 AM,48.2,46.4,93,29.57,4.0,SSW,4.6,-,N/A,,Overcast,210,2012-12-18 10:35:00
6:15 AM,48.2,46.4,93,29.57,4.0,SSW,5.8,-,N/A,,Overcast,210,2012-12-18 11:15:00
6:35 AM,48.2,48.2,100,29.57,5.0,SSW,3.5,-,N/A,,Overcast,210,2012-12-18 11:35:00
6:55 AM,46.4,46.4,100,29.58,5.0,SW,3.5,-,N/A,,Overcast,220,2012-12-18 11:55:00
7:30 AM,46.4,46.4,100,29.59,4.0,Calm,Calm,-,N/A,,Overcast,0,2012-12-18 12:30:00
7:50 AM,44.6,44.6,100,29.59,6.0,Calm,Calm,-,N/A,,Overcast,0,2012-12-18 12:50:00
10:50 AM,57.2,48.2,72,29.62,10.0,West,8.1,-,N/A,,Partly Cloudy,280,2012-12-18 15:50:00
11:55 AM,57.2,41.0,55,29.61,10.0,WNW,15.0,19.6,N/A,,Mostly Cloudy,300,2012-12-18 16:55:00
1:45 PM,55.4,41.0,58,29.62,10.0,NW,15.0,20.7,N/A,,Mostly Cloudy,310,2012-12-18 18:45:00
3:55 PM,51.8,37.4,58,29.70,10.0,NNW,11.5,18.4,N/A,,Overcast,340,2012-12-18 20:55:00
4:45 PM,48.2,37.4,66,29.71,10.0,North,8.1,18.4,N/A,,Scattered Clouds,350,2012-12-18 21:45:00
5:45 PM,48.2,35.6,62,29.73,10.0,NW,11.5,16.1,N/A,,Scattered Clouds,320,2012-12-18 22:45:00
7:55 PM,42.8,33.8,70,29.79,10.0,NW,5.8,-,N/A,,Clear,320,2012-12-19 00:55:00
8:15 PM,44.6,33.8,66,29.80,10.0,WNW,8.1,-,N/A,,Clear,290,2012-12-19 01:15:00
8:35 PM,44.6,33.8,66,29.81,10.0,WNW,8.1,-,N/A,,Clear,300,2012-12-19 01:35:00
8:55 PM,42.8,33.8,70,29.81,10.0,NW,5.8,-,N/A,,Clear,310,2012-12-19 01:55:00
9:15 PM,42.8,32.0,66,29.81,10.0,NW,3.5,-,N/A,,Clear,320,2012-12-19 02:15:00
9:35 PM,42.8,32.0,66,29.81,10.0,NNW,3.5,-,N/A,,Clear,330,2012-12-19 02:35:00
9:55 PM,41.0,32.0,70,29.81,10.0,NNW,3.5,-,N/A,,Clear,330,2012-12-19 02:55:00
10:15 PM,37.4,32.0,81,29.81,10.0,NNW,5.8,-,N/A,,Clear,330,2012-12-19 03:15:00
10:35 PM,35.6,33.8,93,29.81,10.0,Calm,Calm,-,N/A,,Clear,0,2012-12-19 03:35:00
10:55 PM,35.6,33.8,93,29.82,10.0,SSE,3.5,-,N/A,,Clear,160,2012-12-19 03:55:00
11:15 PM,35.6,32.0,87,29.81,10.0,Calm,Calm,-,N/A,,Clear,0,2012-12-19 04:15:00
11:35 PM,33.8,30.2,87,29.82,10.0,Calm,Calm,-,N/A,,Clear,0,2012-12-19 04:35:00
11:55 PM,33.8,32.0,93,29.82,10.0,Calm,Calm,-,N/A,,Clear,0,2012-12-19 04:55:00